[ hide orbit diagram ]
For accurate long-term ephemerides, please instead use our Horizons system.This orbit viewer was implemented using two-body methods, and hence should not be used for determining accurate long-term trajectories (over several years or decades) or planetary encounter circumstances.
Orbital Elements at Epoch 2459200.5 (2020-Dec-17.0) TDB
Reference: JPL 18 (heliocentric ecliptic J2000)
Element | Value | Uncertainty (1-sigma) | Units |
e | .1280462177962322 | 6.455e-08 | |
a | 2.694584929034602 | 1.7691e-08 | au |
q | 2.349553520340992 | 1.7132e-07 | au |
i | 3.179417875995318 | 6.444e-06 | deg |
node | 23.0304437385026 | 9.5974e-05 | deg |
peri | 331.7011209755995 | 9.8142e-05 | deg |
M | 212.7164997275796 | 2.2302e-05 | deg |
tp | 2459861.479267688497 (2022-Oct-08.97926769) | 0.00010265 | TDB |
period | 1615.608917005192 4.42 | 1.5911e-05 4.356e-08 | d yr |
n | .2228262026848191 | 2.1944e-09 | deg/d |
Q | 3.039616337728211 | 1.9957e-08 | au |
|
| | Orbit Determination Parameters
Additional Information
|
[ show covariance matrix ]
Physical Parameter Table
Parameter |
Symbol |
Value |
Units |
Sigma |
Reference |
Notes |
absolute magnitude |
H |
16.45 |
|
n/a |
E2021B55 |
|
|
120777 (1998 DZ25) Discovered 1998-Feb-23 by Spacewatch at Kitt Peak |
Reference: 20060314/Numbers.arc | Last Updated: 2006-03-23 |
|
|